Location: Seclusion Ranch
(37.6167°N, 104.1333°W)
Time: 03:41:13
(UTC-06:00)

ISS - Visible Passes

Search period start: 17 July 2018 00:00
Search period end: 27 July 2018 00:00
Orbit: 402 x 408 km, 51.6° (Epoch: 17 July)

Date Brightness Start Highest point End Pass type
(mag) Time Alt. Az. Time Alt. Az. Time Alt. Az.
17 Jul -0.8 04:37:44 10° NNW 04:40:13 19° NNE 04:42:41 10° ENE visible
18 Jul -0.3 00:33:04 12° N 00:33:04 12° N 00:33:49 10° N visible
18 Jul -0.5 03:46:08 10° N 03:47:52 13° NNE 03:49:37 10° NE visible
18 Jul -4.0 22:00:01 10° SW 22:03:14 66° SE 22:04:29 33° ENE visible
18 Jul -0.9 23:37:44 10° WNW 23:40:01 17° NNW 23:42:16 10° NNE visible
19 Jul -0.1 02:55:13 10° NNE 02:55:27 10° NNE 02:55:41 10° NNE visible
19 Jul -2.2 04:29:35 10° NW 04:32:42 37° NE 04:35:47 10° ESE visible
19 Jul -3.1 21:08:19 10° SSW 21:11:13 30° SE 21:14:08 10° ENE visible
19 Jul -1.6 22:44:53 10° W 22:47:42 26° NNW 22:50:32 10° NNE visible
20 Jul -1.2 03:37:46 10° NNW 03:40:26 23° NNE 03:43:07 10° E visible
20 Jul -3.4 05:13:56 10° WNW 05:17:01 39° SW 05:20:06 10° SSE visible
20 Jul -2.7 21:52:19 10° WSW 21:55:28 46° NW 21:58:38 10° NE visible
20 Jul -0.2 23:31:38 10° NW 23:32:37 11° NNW 23:33:35 10° N visible
21 Jul -0.6 02:46:03 10° NNW 02:48:06 15° NNE 02:50:08 10° ENE visible
21 Jul -4.0 04:21:40 10° NW 04:24:58 85° SW 04:28:14 10° SE visible
21 Jul -3.9 21:00:04 10° SW 21:03:18 87° SE 21:06:35 10° NE visible
21 Jul -0.5 22:38:11 10° WNW 22:40:11 15° NNW 22:42:11 10° NNE visible
22 Jul -0.2 01:54:37 10° N 01:55:39 11° NNE 01:56:42 10° NE visible
22 Jul -2.8 03:29:37 10° NW 03:32:48 47° NE 03:35:59 10° ESE visible
22 Jul -2.1 05:07:00 10° W 05:09:00 15° SW 05:10:59 10° SSW visible
22 Jul -1.1 21:45:11 10° W 21:47:49 22° NNW 21:50:28 10° NNE visible
23 Jul -2.1 20:52:27 10° WSW 20:55:31 36° NW 20:58:34 10° NE visible
24 Jul -0.6 21:38:34 10° NW 21:40:15 13° NNW 21:41:56 10° N visible
25 Jul -0.9 20:45:23 10° WNW 20:47:49 19° NNW 20:50:15 10° NNE visible
